Location: Chantarel
(45.1638°N, 1.7873°E)
Time: 17:20:33
(UTC+00:00)

Cosmos 1689 Rocket - Pass Details

Date: 03 March 2021
Orbit: 350 x 361 km, 97.5° (Epoch: 12 April)

Event Time Altitude Azimuth Distance (km) Brightness Sun altitude
Rises 18:54:32 0° 9° (N) 2,209 5.9 -13.4°
Reaches altitude 10° 18:56:29 10° 6° (N) 1,359 4.8 -13.7°
Maximum altitude 18:59:20 61° 285° (WNW) 420 2.5 -14.2°
Drops below altitude 10° 19:02:11 10° 204° (SSW) 1,354 5.1 -14.7°
Sets 19:04:07 0° 201° (SSW) 2,199 6.1 -15.1°
